Challis, ID

4:28 PM MDT on March 25, 2017 (GMT -0600)
Challis

Weather History for KLLJ - December, 2012

Change the Weather History Date:

Monday, December 17, 2012

  Actual Average Record
Temperature  
Mean Temperature 23 °F 17 °F  
Max Temperature 35 °F 27 °F 54 °F (1939)
Min Temperature 10 °F 8 °F -22 °F (1914)
Degree Days  
Heating Degree Days 42 48  
Month to date heating degree days 599 779  
Since 1 July heating degree days 2330 2822  
Cooling Degree Days 0 0  
Month to date cooling degree days 0 0  
Year to date cooling degree days 329 248  
Moisture  
Dew Point 21 °F    
Average Humidity 75    
Maximum Humidity 92    
Minimum Humidity 57    
Precipitation  
Precipitation 0.26 in 0.02 in 0.26 in (2012)
Month to date precipitation 0.82 0.42  
Year to date precipitation 5.90 9.74  
Sea Level Pressure  
Sea Level Pressure 29.53 in    
Wind  
Wind Speed 7 mph (NNW)    
Max Wind Speed 28 mph    
Max Gust Speed 33 mph    
Visibility 4 miles    
Events Fog , Snow    
T = Trace of Precipitation, MM = Missing Value Source: NWS Daily Summary

Daily Weather History Graph

Daily Weather History Graph

Search for Another Location

Airport or City:

Trip Planner

Search our weather history database for the weather conditions in past years. The results will help you decide how hot, cold, wet, or windy it might be!

Date:

Astronomy

Dec. 17, 2012 Rise Set
Actual Time 8:08 AM MST 4:58 PM MST
Civil Twilight 7:34 AM MST 5:31 PM MST
Nautical Twilight 6:57 AM MST 6:08 PM MST
Astronomical Twilight 6:22 AM MST 6:44 PM MST
Moon 11:08 AM MST (12/17) 10:35 PM MST (12/17)
Length of Visible Light 9h 57m
Length of Day
8h 50m
Waxing Crescent, 25% of the Moon is Illuminated
Dec 17
Waxing Crescent
Dec 19
First Quarter
Dec 28
Full
Jan 4
Last Quarter
Jan 11
New

Hourly Weather History & Observations

Time (MST) Temp. Windchill Dew Point Humidity Pressure Visibility Wind Dir Wind Speed Gust Speed Precip Events Conditions
12:55 AM 25.0 °F 20.7 °F 17.1 °F 72% 29.59 in 10.0 mi NNE 3.5 mph - N/A   Overcast
1:55 AM 25.0 °F 19.3 °F 18.0 °F 75% 29.55 in 4.0 mi North 4.6 mph - 0.00 in Snow Light Snow
2:11 AM 24.8 °F 19.1 °F 19.4 °F 80% 29.49 in 3.0 mi NE 4.6 mph - 0.00 in Snow Light Snow
2:18 AM 24.8 °F 20.5 °F 19.4 °F 80% 29.48 in 2.5 mi North 3.5 mph - 0.00 in Snow Light Snow
2:55 AM 25.0 °F 20.7 °F 19.9 °F 81% 29.52 in 2.0 mi North 3.5 mph - 0.01 in Snow Light Snow
3:13 AM 24.8 °F 20.5 °F 21.2 °F 86% 29.47 in 1.2 mi NNE 3.5 mph - 0.00 in Snow Light Snow
3:48 AM 24.8 °F 20.5 °F 21.2 °F 86% 29.44 in 2.5 mi NNW 3.5 mph - 0.01 in Snow Light Snow
3:55 AM 25.0 °F - 21.9 °F 88% 29.49 in 2.0 mi Calm Calm - 0.02 in Snow Light Snow
4:03 AM 24.8 °F 17.9 °F 21.2 °F 86% 29.43 in 1.5 mi North 5.8 mph - 0.00 in Snow Light Snow
4:24 AM 24.8 °F 20.5 °F 21.2 °F 86% 29.43 in 1.2 mi North 3.5 mph - 0.01 in Snow Light Snow
4:40 AM 24.8 °F 20.5 °F 21.2 °F 86% 29.42 in 0.8 mi North 3.5 mph - 0.03 in Snow Light Snow
4:47 AM 26.6 °F 22.6 °F 23.0 °F 86% 29.42 in 1.0 mi ENE 3.5 mph - 0.03 in Snow Light Snow
4:55 AM 26.1 °F 21.9 °F 23.0 °F 88% 29.46 in 2.0 mi North 3.5 mph - 0.03 in Snow Light Snow
5:10 AM 26.6 °F 22.6 °F 23.0 °F 86% 29.40 in 1.0 mi North 3.5 mph - 0.01 in Snow Light Snow
5:31 AM 26.6 °F 21.2 °F 23.0 °F 86% 29.40 in 1.0 mi NNE 4.6 mph - 0.02 in Snow Light Snow
5:38 AM 26.6 °F 22.6 °F 23.0 °F 86% 29.40 in 0.8 mi NE 3.5 mph - 0.03 in Snow Light Snow
5:51 AM 26.6 °F 21.2 °F 23.0 °F 86% 29.40 in 0.8 mi ENE 4.6 mph - 0.05 in Snow Light Snow
5:55 AM 26.1 °F 21.9 °F 23.0 °F 88% 29.46 in 0.5 mi NE 3.5 mph - 0.05 in Fog , Snow Snow
6:11 AM 26.6 °F - 24.8 °F 93% 29.40 in 0.2 mi Calm Calm - 0.04 in Fog , Snow Heavy Snow
6:37 AM 26.6 °F - 23.0 °F 86% 29.41 in 0.5 mi Calm Calm - 0.11 in Fog , Snow Snow
6:50 AM 26.6 °F 20.0 °F 23.0 °F 86% 29.42 in 1.8 mi NNW 5.8 mph - 0.12 in Snow Light Snow
6:55 AM 26.1 °F 21.9 °F 23.0 °F 88% 29.48 in 1.5 mi NW 3.5 mph - 0.12 in Snow Light Snow
7:22 AM 26.6 °F - 23.0 °F 86% 29.40 in 1.2 mi Calm Calm - 0.01 in Snow Light Snow
7:46 AM 26.6 °F 21.2 °F 24.8 °F 93% 29.42 in 2.0 mi Variable 4.6 mph - 0.02 in Snow Light Snow
7:53 AM 26.6 °F 19.1 °F 24.8 °F 93% 29.41 in 4.0 mi SSE 6.9 mph - 0.02 in Snow Light Snow
7:55 AM 27.0 °F 21.6 °F 25.0 °F 92% 29.47 in 5.0 mi SSE 4.6 mph - 0.02 in Snow Light Snow
8:14 AM 26.6 °F 22.6 °F 24.8 °F 93% 29.42 in 10.0 mi SSE 3.5 mph - 0.00 in   Overcast
8:55 AM 28.0 °F 24.2 °F 25.0 °F 88% 29.51 in 10.0 mi North 3.5 mph - 0.00 in   Overcast
9:55 AM 30.9 °F 24.3 °F 25.0 °F 79% 29.54 in 10.0 mi Variable 6.9 mph - N/A   Overcast
10:55 AM 33.1 °F 23.9 °F 21.0 °F 61% 29.56 in 8.0 mi West 12.7 mph 23.0 mph 0.00 in Snow Light Snow
11:35 AM 32.0 °F 20.8 °F 24.8 °F 75% 29.53 in 1.8 mi NW 17.3 mph 27.6 mph 0.00 in Snow Light Snow
11:53 AM 30.2 °F 17.8 °F 21.2 °F 69% 29.52 in 1.0 mi WNW 19.6 mph 33.4 mph 0.01 in Snow Light Snow
11:55 AM 30.9 °F 17.5 °F 21.0 °F 67% 29.57 in 1.0 mi WNW 24.2 mph 33.4 mph 0.01 in Snow Light Snow
12:00 PM 30.2 °F 17.1 °F 21.2 °F 69% 29.52 in 2.5 mi WNW 21.9 mph 32.2 mph 0.00 in Snow Light Snow
12:07 PM 30.2 °F 18.5 °F 21.2 °F 69% 29.53 in 5.0 mi WNW 17.3 mph 27.6 mph 0.00 in Snow Light Snow
12:15 PM 32.0 °F 27.5 °F 21.2 °F 64% 29.52 in 9.0 mi SSE 4.6 mph - 0.00 in Snow Light Snow
12:51 PM 30.2 °F 21.9 °F 23.0 °F 75% 29.53 in 2.5 mi SE 9.2 mph 18.4 mph 0.00 in Snow Light Snow
12:55 PM 30.9 °F 22.8 °F 23.0 °F 72% 29.59 in 1.8 mi SSE 9.2 mph 18.4 mph 0.00 in Snow Light Snow
1:09 PM 28.4 °F 21.2 °F 24.8 °F 86% 29.53 in 3.0 mi SE 6.9 mph - 0.00 in Snow Light Snow
1:23 PM 28.4 °F 24.6 °F 24.8 °F 86% 29.53 in 10.0 mi SSW 3.5 mph - 0.00 in   Overcast
1:55 PM 30.0 °F 19.1 °F 21.9 °F 72% 29.59 in 10.0 mi SSE 15.0 mph - 0.00 in   Overcast
2:43 PM 30.2 °F 19.8 °F 21.2 °F 69% 29.55 in 1.5 mi SW 13.8 mph 24.2 mph 0.00 in Snow Light Snow
2:48 PM 28.4 °F 21.2 °F 21.2 °F 74% 29.54 in 0.8 mi Variable 6.9 mph 23.0 mph 0.00 in Snow Light Snow
2:55 PM 28.0 °F 20.8 °F 23.0 °F 81% 29.62 in 1.2 mi South 6.9 mph - 0.00 in Snow Light Snow
5:55 PM 27.0 °F 13.5 °F 16.0 °F 63% 29.70 in 8.0 mi WSW 19.6 mph 25.3 mph 0.00 in Snow Light Snow
6:02 PM 26.6 °F 14.3 °F 17.6 °F 69% 29.64 in 5.0 mi SW 16.1 mph 27.6 mph 0.00 in Snow Light Snow
6:15 PM 24.8 °F 12.4 °F 17.6 °F 74% 29.64 in 9.0 mi SSW 15.0 mph - 0.00 in   Scattered Clouds
6:55 PM 21.0 °F 14.6 °F 14.0 °F 74% 29.74 in 10.0 mi Variable 4.6 mph - 0.00 in   Clear
7:55 PM 19.0 °F - 10.9 °F 71% 29.77 in 10.0 mi Calm Calm - N/A   Scattered Clouds
8:55 PM 19.0 °F 12.3 °F 12.0 °F 74% 29.78 in 10.0 mi South 4.6 mph - N/A   Scattered Clouds
9:55 PM 21.0 °F 11.4 °F 8.1 °F 57% 29.77 in 10.0 mi SSW 8.1 mph - N/A   Partly Cloudy
10:55 PM 12.0 °F 2.7 °F 5.0 °F 73% 29.81 in 10.0 mi WNW 5.8 mph - N/A   Clear
11:55 PM 14.0 °F 8.2 °F 5.0 °F 67% 29.82 in 10.0 mi Variable 3.5 mph - N/A   Clear